CW2195 Weather Reports


time (UTC)temp
F
wind
direction
speed
knots
gust
knots
rain 1hr
in
rain 24hr
in
rain mn
in
humidity
%
barometer
mb
20260508030003 56 358 0.9 7.0 0.00 0.00 0.00 50 1014.8
20260508025503 56 3 0.9 5.2 0.00 0.00 0.00 49 1014.8
20260508025003 56 334 2.6 5.2 0.00 0.00 0.00 49 1014.8
20260508024503 56 3 1.7 7.0 0.00 0.01 0.00 50 1014.8
20260508024003 56 327 0.9 7.0 0.00 0.01 0.00 50 1014.6
20260508023503 56 314 3.5 7.0 0.00 0.01 0.00 50 1014.6
20260508023003 56 348 1.7 7.8 0.00 0.01 0.00 50 1014.5
20260508022502 56 338 1.7 7.8 0.00 0.01 0.00 51 1014.5
20260508022003 56 333 3.5 7.8 0.00 0.01 0.00 51 1014.4
20260508021503 56 340 0.9 4.3 0.00 0.01 0.00 52 1014.4
20260508021002 56 327 0.0 2.6 0.00 0.01 0.00 53 1014.2
20260508020503 56 327 0.0 4.3 0.00 0.01 0.00 53 1014.1
20260508020003 56 9 0.9 4.3 0.00 0.01 0.00 53 1013.9
20260508015503 56 355 0.9 2.6 0.00 0.02 0.00 54 1013.9
20260508015003 56 345 0.9 2.6 0.00 0.02 0.00 54 1013.7
20260508014503 56 334 1.7 2.6 0.00 0.02 0.00 55 1013.6
20260508014003 56 355 0.0 2.6 0.00 0.02 0.00 55 1013.5
20260508013503 57 355 0.0 1.7 0.00 0.02 0.00 55 1013.5
20260508013003 57 355 0.0 1.7 0.00 0.02 0.00 54 1013.5
20260508012003 57 355 0.0 1.7 0.00 0.02 0.00 54 1013.3
20260508011503 57 355 0.0 0.9 0.00 0.02 0.00 54 1013.2
20260508011003 58 355 0.0 1.7 0.00 0.02 0.00 53 1013.2
20260508010504 58 355 0.0 2.6 0.00 0.02 0.00 53 1013.1
20260508010003 58 5 0.9 2.6 0.00 0.02 0.00 53 1013.0
20260508005503 58 355 0.0 2.6 0.00 0.02 0.00 53 1012.9
20260508005003 58 0 0.9 2.6 0.00 0.02 0.00 53 1012.8
20260508004504 58 5 0.9 4.3 0.00 0.02 0.00 53 1012.8
20260508004003 58 340 1.7 4.3 0.00 0.02 0.00 54 1012.9
20260508003503 58 344 0.0 2.6 0.00 0.02 0.00 53 1012.8
20260508003003 59 355 0.0 2.6 0.00 0.02 0.00 52 1012.8
20260508002502 59 350 0.0 1.7 0.00 0.02 0.00 53 1012.7
20260508002004 59 351 0.0 1.7 0.00 0.02 0.00 53 1012.6
20260508001502 59 350 0.0 0.0 0.00 0.02 0.00 55 1012.7
20260508001003 59 350 0.0 2.6 0.00 0.02 0.00 53 1012.6
20260508000503 60 350 0.0 4.3 0.00 0.02 0.00 53 1012.5
20260508000003 60 350 1.7 7.0 0.00 0.02 0.00 52 1012.5
20260507235503 60 331 2.6 7.0 0.00 0.02 0.00 52 1012.4
20260507235003 60 346 1.7 4.3 0.00 0.02 0.00 52 1012.4
20260507234504 61 315 1.7 4.3 0.00 0.02 0.00 53 1012.3
20260507234003 61 322 1.7 7.0 0.00 0.02 0.00 52 1012.2
20260507233503 61 358 1.7 7.0 0.00 0.02 0.00 53 1012.1
20260507233003 61 347 2.6 7.0 0.00 0.02 0.00 53 1012.1
20260507232502 62 341 1.7 4.3 0.00 0.02 0.00 51 1011.7
20260507232003 62 355 1.7 4.3 0.00 0.02 0.00 52 1011.8
20260507231503 62 5 0.0 2.6 0.00 0.02 0.00 54 1011.7
20260507231003 62 355 0.9 4.3 0.00 0.02 0.00 53 1011.6
20260507230005 63 324 0.9 7.8 0.00 0.02 0.00 50 1011.5
20260507225503 64 327 4.3 7.8 0.00 0.02 0.00 49 1011.4
20260507225003 64 340 2.6 8.7 0.00 0.02 0.00 49 1011.4
20260507224503 63 260 2.6 8.7 0.00 0.02 0.00 49 1011.3
20260507224003 63 351 2.6 8.7 0.00 0.02 0.00 53 1011.2
20260507223003 63 264 5.2 11.3 0.00 0.02 0.00 49 1011.3
20260507222503 64 334 3.5 10.4 0.00 0.02 0.00 49 1011.2
20260507222003 64 340 2.6 10.4 0.00 0.02 0.00 52 1011.1
20260507221002 65 226 4.3 10.4 0.00 0.02 0.00 49 1011.1
20260507220503 65 310 4.3 13.0 0.00 0.02 0.00 50 1011.0
20260507220003 66 324 6.1 13.0 0.00 0.02 0.00 49 1010.8
20260507215502 66 337 2.6 7.0 0.00 0.02 0.00 53 1010.7
20260507215003 64 252 2.6 5.2 0.00 0.02 0.00 55 1010.7
20260507214503 64 346 0.9 2.6 0.00 0.02 0.00 59 1010.7
20260507214003 64 235 0.9 7.0 0.00 0.02 0.00 60 1010.7
20260507213503 63 225 2.6 7.0 0.00 0.02 0.00 60 1010.6
20260507213003 62 184 2.6 7.0 0.00 0.02 0.00 62 1010.6
20260507212503 62 249 1.7 5.2 0.00 0.02 0.00 63 1010.6
20260507212002 62 215 1.7 4.3 0.00 0.02 0.00 66 1010.6
20260507211503 62 191 1.7 4.3 0.00 0.02 0.00 66 1010.6
20260507211003 61 205 1.7 4.3 0.00 0.02 0.00 66 1010.6
20260507210503 61 172 0.0 5.2 0.00 0.02 0.00 65 1010.5
20260507210004 62 231 1.7 7.0 0.00 0.02 0.00 66 1010.5
20260507205503 63 195 2.6 7.0 0.00 0.02 0.00 64 1010.5
20260507205003 64 206 3.5 7.0 0.00 0.02 0.00 63 1010.4
20260507203504 64 188 4.3 10.4 0.00 0.02 0.00 61 1010.4
20260507203004 63 343 1.7 7.0 0.00 0.02 0.00 63 1010.3
20260507202502 63 0 0.9 6.1 0.00 0.02 0.00 64 1010.4
20260507201503 63 183 1.7 6.1 0.00 0.02 0.00 66 1010.5
20260507201003 62 164 0.9 6.1 0.00 0.02 0.00 69 1010.6
20260507200009 60 231 1.7 6.1 0.00 0.03 0.00 72 1010.6
20260507195503 60 170 1.7 6.1 0.00 0.03 0.00 72 1011.0
20260507194003 59 193 2.6 6.1 0.00 0.03 0.00 71 1011.4
20260507193503 59 253 0.9 4.3 0.00 0.03 0.00 71 1011.5
20260507193003 59 311 2.6 4.3 0.00 0.03 0.00 72 1011.6
20260507192503 59 354 1.7 4.3 0.00 0.03 0.00 73 1011.7
20260507191502 58 283 0.9 2.6 0.00 0.03 0.00 73 1011.6
20260507191003 57 339 0.9 2.6 0.00 0.03 0.00 75 1011.7
20260507190503 57 242 0.9 2.6 0.00 0.03 0.00 73 1011.6
20260507190004 58 246 0.9 2.6 0.00 0.03 0.00 76 1011.7
20260507185503 57 342 0.0 1.7 0.00 0.03 0.00 75 1011.9
20260507185003 57 342 0.0 2.6 0.00 0.03 0.00 76 1011.9
20260507184502 57 342 0.9 2.6 0.00 0.03 0.00 75 1012.0
20260507183503 57 336 0.9 2.6 0.00 0.03 0.00 77 1012.0
20260507183003 57 290 0.0 2.6 0.00 0.03 0.00 76 1012.0
20260507182503 57 290 0.9 2.6 0.00 0.03 0.00 78 1012.1
20260507181504 58 55 0.0 1.7 0.00 0.03 0.00 80 1012.0
20260507181004 57 25 0.0 1.7 0.00 0.03 0.00 80 1011.8
20260507180503 57 19 0.0 0.9 0.00 0.03 0.00 79 1012.2
20260507180003 57 19 0.0 0.9 0.00 0.03 0.00 79 1012.0
20260507175503 57 9 0.0 1.7 0.00 0.03 0.00 79 1012.0
20260507175003 57 9 0.0 4.3 0.00 0.03 0.00 78 1012.1
20260507174003 57 0 0.9 2.6 0.00 0.03 0.00 79 1012.0
20260507173503 57 69 0.9 2.6 0.00 0.03 0.00 79 1012.0
20260507173004 56 43 0.0 2.6 0.00 0.03 0.00 78 1012.2
20260507172503 56 0 1.7 4.3 0.00 0.03 0.00 78 1012.4
20260507172006 57 355 1.7 5.2 0.00 0.03 0.00 77 1012.3
20260507171503 57 332 2.6 8.7 0.00 0.03 0.00 77 1012.3
20260507170504 57 353 1.7 7.0 0.00 0.03 0.00 78 1012.3
20260507170003 57 357 2.6 7.8 0.00 0.03 0.00 78 1012.4
20260507164504 57 349 2.6 5.2 0.00 0.03 0.00 79 1012.3
20260507164004 57 350 1.7 4.3 0.00 0.03 0.00 79 1012.2
20260507163503 57 355 0.0 4.3 0.00 0.03 0.00 79 1012.1
20260507163003 58 16 0.0 2.6 0.00 0.03 0.00 80 1012.3
20260507162503 57 15 0.0 4.3 0.00 0.03 0.00 78 1012.3
20260507161503 57 343 1.7 5.2 0.00 0.03 0.00 79 1012.3
20260507161003 57 352 0.9 4.3 0.00 0.03 0.00 79 1012.3
20260507160503 57 0 0.9 2.6 0.00 0.03 0.00 79 1012.4
20260507160003 57 351 0.9 2.6 0.00 0.03 0.00 79 1012.4
20260507155503 57 8 1.7 6.1 0.00 0.03 0.00 79 1012.4
20260507155003 57 355 1.7 7.0 0.00 0.03 0.00 78 1012.5
20260507154003 58 346 1.7 4.3 0.00 0.03 0.00 76 1012.6
20260507153504 58 10 0.9 2.6 0.00 0.03 0.00 76 1012.6
20260507153003 58 357 1.7 4.3 0.00 0.03 0.00 76 1012.6
20260507152504 58 38 0.9 5.2 0.00 0.03 0.00 76 1012.5
20260507152003 58 357 0.9 5.2 0.00 0.03 0.00 75 1012.6
20260507151504 58 15 0.9 5.2 0.00 0.03 0.00 75 1012.5
20260507151003 58 2 0.9 5.2 0.00 0.03 0.00 76 1012.6
20260507150503 58 37 1.7 7.0 0.00 0.03 0.00 76 1012.5
20260507150004 58 355 0.9 7.0 0.00 0.03 0.00 75 1012.6
20260507145503 58 0 0.9 7.0 0.00 0.03 0.00 75 1012.5
20260507145003 58 355 0.0 4.3 0.00 0.03 0.00 76 1012.5
20260507144503 58 355 0.9 4.3 0.00 0.03 0.00 75 1012.5
20260507144003 59 2 1.7 2.6 0.00 0.03 0.00 74 1012.5
20260507143503 58 0 0.0 7.8 0.00 0.03 0.00 75 1012.4
20260507143004 58 353 3.5 7.8 0.00 0.03 0.00 74 1012.3
20260507142503 59 357 0.9 7.0 0.00 0.03 0.00 74 1012.4
20260507142003 59 356 2.6 8.7 0.00 0.03 0.00 73 1012.5
20260507141503 59 324 2.6 8.7 0.00 0.03 0.00 74 1012.4
20260507140503 59 4 1.7 5.2 0.00 0.03 0.00 73 1012.2
20260507140003 59 359 1.7 5.2 0.00 0.03 0.00 73 1012.0
20260507135503 59 355 0.9 8.7 0.00 0.03 0.00 73 1012.3
20260507135003 59 16 1.7 8.7 0.00 0.03 0.00 73 1012.5
20260507134502 59 34 1.7 7.8 0.00 0.03 0.00 74 1012.7
20260507134003 59 347 3.5 7.8 0.00 0.03 0.00 74 1012.7
20260507133503 59 11 0.9 5.2 0.00 0.03 0.00 75 1012.7
20260507133003 59 355 0.9 5.2 0.00 0.03 0.00 75 1012.6
20260507132503 59 345 1.7 5.2 0.00 0.04 0.00 74 1012.6
20260507132004 59 6 1.7 7.0 0.00 0.04 0.00 74 1012.6
20260507131503 59 1 2.6 7.0 0.00 0.04 0.00 74 1012.8
20260507131004 60 358 1.7 7.0 0.00 0.04 0.00 74 1012.8
20260507130003 59 352 1.7 7.8 0.00 0.04 0.00 75 1012.4
20260507125503 59 4 2.6 7.8 0.00 0.04 0.00 76 1012.5
20260507125003 59 341 0.9 4.3 0.00 0.04 0.00 76 1012.5
20260507124503 59 2 1.7 5.2 0.00 0.04 0.00 76 1012.5
20260507124002 59 16 1.7 5.2 0.00 0.04 0.00 76 1012.5
20260507123503 59 12 0.9 7.0 0.00 0.04 0.00 77 1012.5
20260507123004 59 356 1.7 8.7 0.00 0.04 0.00 77 1012.5
20260507122503 59 17 2.6 8.7 0.00 0.04 0.00 76 1012.6
20260507122004 59 358 2.6 8.7 0.00 0.04 0.00 76 1012.6
20260507121503 59 352 2.6 5.2 0.00 0.04 0.00 77 1012.5
20260507121004 59 10 1.7 4.3 0.00 0.04 0.00 77 1012.5
20260507120503 59 6 1.7 2.6 0.00 0.04 0.00 77 1012.7
20260507120004 59 10 1.7 2.6 0.00 0.04 0.00 77 1012.5
20260507115507 59 350 0.9 2.6 0.00 0.04 0.00 78 1012.6
20260507115003 59 342 0.9 4.3 0.00 0.04 0.00 79 1012.4
20260507113004 59 345 0.0 2.6 0.00 0.04 0.00 78 1012.3
20260507112503 59 0 0.0 2.6 0.00 0.04 0.00 78 1012.0
20260507112004 59 339 0.9 7.0 0.00 0.04 0.00 78 1012.0
20260507111503 59 341 0.9 7.0 0.00 0.04 0.00 78 1011.9
20260507111003 59 354 1.7 7.0 0.00 0.04 0.00 78 1011.7
20260507110503 59 12 0.9 2.6 0.00 0.04 0.00 79 1011.6
20260507110004 59 19 0.9 2.6 0.00 0.04 0.00 78 1011.7
20260507105503 59 15 0.9 2.6 0.00 0.04 0.00 78 1011.5
20260507104504 59 0 0.9 2.6 0.00 0.04 0.00 78 1011.6
20260507104004 59 19 0.0 1.7 0.00 0.04 0.00 78 1011.8
20260507103502 59 17 0.0 2.6 0.00 0.04 0.00 78 1011.7
20260507103004 59 17 0.9 2.6 0.00 0.04 0.00 78 1011.7
20260507102503 59 32 0.0 1.7 0.00 0.04 0.00 78 1011.4
20260507102003 59 53 0.0 1.7 0.00 0.04 0.00 79 1011.5
20260507101504 59 53 0.0 2.6 0.00 0.04 0.00 79 1011.4
20260507101003 60 74 0.0 2.6 0.00 0.04 0.00 79 1011.5
20260507100503 60 63 0.9 2.6 0.00 0.04 0.00 79 1011.5
20260507100003 60 49 0.9 2.6 0.00 0.04 0.00 79 1011.4
20260507095503 60 59 0.0 2.6 0.00 0.04 0.00 79 1011.5
20260507095003 60 64 0.0 2.6 0.00 0.04 0.00 78 1011.7
20260507094003 60 56 0.9 5.2 0.00 0.04 0.00 78 1011.6
20260507093004 60 63 0.9 2.6 0.00 0.04 0.00 79 1011.7
20260507092503 60 74 0.0 1.7 0.00 0.04 0.00 79 1011.8
20260507092003 60 23 0.0 1.7 0.00 0.04 0.00 80 1011.7
20260507091503 60 16 0.0 2.6 0.00 0.04 0.00 79 1011.5
20260507091003 60 16 0.0 2.6 0.00 0.04 0.00 78 1011.3
20260507090503 60 355 0.0 2.6 0.00 0.04 0.00 78 1010.9
20260507090005 60 356 0.9 4.3 0.00 0.04 0.00 79 1010.9
20260507085503 60 354 0.9 4.3 0.00 0.04 0.00 79 1011.0
20260507085003 61 21 1.7 4.3 0.00 0.04 0.00 80 1011.3
20260507084504 61 325 0.0 1.7 0.00 0.04 0.00 79 1011.2
20260507084003 61 336 0.0 1.7 0.00 0.04 0.00 79 1011.4
20260507083503 61 335 0.0 1.7 0.00 0.04 0.00 79 1011.7
20260507083005 62 335 0.0 0.9 0.00 0.04 0.00 79 1011.6
20260507082503 62 335 0.0 1.7 0.00 0.04 0.00 79 1011.7
20260507082003 62 335 0.9 1.7 0.00 0.04 0.00 79 1011.5
20260507081503 62 335 0.0 0.9 0.00 0.04 0.00 79 1011.4
20260507081003 62 335 0.0 0.0 0.00 0.04 0.00 79 1011.6
20260507080503 62 335 0.0 0.0 0.00 0.04 0.00 79 1011.6
20260507080003 62 335 0.0 2.6 0.00 0.04 0.00 78 1011.5
20260507075003 62 335 0.9 5.2 0.00 0.04 0.00 77 1011.6
20260507072503 62 286 4.3 7.8 0.00 0.04 0.00 79 1011.3
20260507072002 62 344 0.9 4.3 0.00 0.04 0.00 80 1011.2
20260507071504 62 355 1.7 2.6 0.00 0.04 0.00 82 1011.3
20260507070504 63 355 0.0 0.9 0.00 0.04 0.00 84 1010.9
20260507070008 63 355 0.0 2.6 0.00 0.04 0.00 83 1011.1
20260507065503 63 355 0.0 2.6 0.00 0.04 0.00 83 1011.2
20260507064003 63 0 0.0 2.6 0.00 0.04 0.00 87 1011.4
20260507063503 63 355 0.9 2.6 0.00 0.04 0.00 87 1011.4
20260507063003 63 355 0.0 0.0 0.00 0.04 0.00 88 1011.5
20260507062004 63 355 0.0 0.0 0.00 0.04 0.00 88 1011.2
20260507061503 63 355 0.0 0.0 0.00 0.04 0.00 89 1011.0
20260507061003 63 344 0.0 0.0 0.00 0.04 0.00 91 1010.8
20260507060503 63 344 0.0 0.0 0.00 0.04 0.00 90 1010.9
20260507060003 63 344 0.0 0.0 0.00 0.04 0.00 91 1011.2
20260507055503 63 344 0.0 0.0 0.00 0.04 0.00 91 1011.4
20260507054503 63 344 0.0 0.0 0.00 0.04 0.00 91 1011.3
20260507054004 63 344 0.0 0.0 0.00 0.04 0.00 91 1011.7
20260507053503 63 344 0.0 0.9 0.00 0.04 0.00 91 1011.8
20260507052504 63 355 0.0 2.6 0.00 0.04 0.00 90 1011.9
20260507052003 64 341 0.9 2.6 0.00 0.04 0.00 90 1012.0
20260507051503 64 292 0.9 2.6 0.00 0.04 0.00 89 1011.8
20260507051003 64 238 0.0 0.9 0.00 0.04 0.00 89 1011.5
20260507050503 64 238 0.0 2.6 0.00 0.04 0.00 89 1011.3
20260507050003 64 238 0.0 2.6 0.00 0.04 0.00 88 1011.3
20260507045003 64 243 0.9 2.6 0.00 0.04 0.00 87 1010.9
20260507044504 64 255 0.9 2.6 0.00 0.04 0.00 87 1011.0
20260507044003 64 303 0.0 2.6 0.00 0.04 0.00 86 1010.8
20260507043503 64 234 0.9 4.3 0.00 0.04 0.00 86 1010.7
20260507043003 65 241 1.7 5.2 0.00 0.04 0.00 86 1010.8
20260507042503 65 181 2.6 5.2 0.00 0.04 0.00 86 1010.9
20260507042003 65 184 1.7 6.1 0.00 0.04 0.00 85 1010.9
20260507041003 65 182 1.7 6.1 0.00 0.04 0.00 85 1011.3
20260507040003 65 190 0.9 4.3 0.00 0.04 0.00 84 1011.1
20260507035005 65 180 2.6 6.1 0.00 0.04 0.04 84 1011.2
20260507034004 65 191 3.5 7.8 0.01 0.04 0.04 83 1011.8
20260507033503 65 220 2.6 8.7 0.01 0.04 0.04 83 1011.9
20260507033004 65 194 5.2 8.7 0.01 0.04 0.04 83 1012.1
20260507032503 65 192 3.5 6.1 0.01 0.04 0.04 83 1012.4
20260507031503 65 204 2.6 5.2 0.01 0.04 0.04 83 1013.0
20260507030504 65 218 2.6 6.1 0.01 0.04 0.04 82 1012.8